This is the latest recevied weather packets stored in our database for station/object OE3WYC-1. If no packets are shown the sender has not sent any weather packets the latest 10 day(s).
| Time | Temp. | Humidity | Pressure | Rain* | Wind** | Luminosity | Snow |
|---|---|---|---|---|---|---|---|
| 1778260805 | 20.56° C | 44% | 1014.1 hPa | 0 mm | - | - | - |
| 1778259905 | 21.11° C | 43% | 1014.1 hPa | 0 mm | - | - | - |
| 1778259305 | 21.11° C | 42% | 1013.9 hPa | 0 mm | - | - | - |
| 1778258404 | 21.11° C | 42% | 1014 hPa | 0 mm | - | - | - |
| 1778257804 | 21.67° C | 42% | 1013.8 hPa | 0 mm | - | - | - |
| 1778252406 | 21.67° C | 42% | 1014 hPa | 0 mm | - | - | - |
| 1778251804 | 21.67° C | 42% | 1014.1 hPa | 0 mm | - | - | - |
| 1778251205 | 21.67° C | 42% | 1014.2 hPa | 0 mm | - | - | - |
| 1778246704 | 21.67° C | 45% | 1014.8 hPa | 0 mm | - | - | - |
| 1778246104 | 21.11° C | 44% | 1014.7 hPa | 0 mm | - | - | - |
| 1778244604 | 21.11° C | 45% | 1015 hPa | 0 mm | - | - | - |
| 1778243704 | 21.11° C | 45% | 1015.1 hPa | 0 mm | - | - | - |
| 1778241304 | 21.11° C | 47% | 1015.2 hPa | 0 mm | - | - | - |
| 1778241005 | 21.11° C | 46% | 1015.3 hPa | 0 mm | - | - | - |
| 1778240704 | 21.11° C | 47% | 1015.3 hPa | 0 mm | - | - | - |
| 1778239505 | 21.11° C | 48% | 1015.2 hPa | 0 mm | - | - | - |
| 1778238604 | 20.56° C | 49% | 1015.3 hPa | 0 mm | - | - | - |
| 1778238304 | 20.56° C | 49% | 1015.4 hPa | 0 mm | - | - | - |
| 1778238006 | 20.56° C | 49% | 1015.4 hPa | 0 mm | - | - | - |
| 1778237404 | 20.56° C | 49% | 1015.6 hPa | 0 mm | - | - | - |
| 1778237104 | 20.56° C | 50% | 1015.7 hPa | 0 mm | - | - | - |
| 1778234104 | 19.44° C | 52% | 1016.2 hPa | 0 mm | - | - | - |
| 1778233804 | 19.44° C | 52% | 1015.9 hPa | 0 mm | - | - | - |
| 1778232006 | 18.89° C | 53% | 1016.1 hPa | 0 mm | - | - | - |
| 1778229004 | 18.33° C | 56% | 1016.2 hPa | 0 mm | - | - | - |
* Rain latest hour (hover to see other rain measurements)
** Current wind speed in m/s (hover to see current wind gust speed)